Regional Weather Roundup
Issued by NWS

Home | Current Version | Previous Version | Text Only | Print | Product List | Glossary On
Versions: 1 2 3 4 5 6 7 8 9 10 11 12 13 14 15 16 17 18 19 20 21 22 23 24 25 26 27 28 29 30 31 32 33 34 35 36 37 38 39 40 41 42 43 44 45 46 47 48 49 50
000
ASUS43 KBIS 191920
RWRND

NORTH DAKOTA REGIONAL WEATHER ROUNDUP
NATIONAL WEATHER SERVICE BISMARCK ND
100 PM CST FRI DEC 19 2014

NOTE: "FAIR" INDICATES FEW OR NO CLOUDS BELOW 12,000 FEET WITH NO
SIGNIFICANT WEATHER AND/OR OBSTRUCTIONS TO VISIBILITY.


NDZ001>003-009>011-017-192000-
NORTHWEST NORTH DAKOTA

CITY           SKY/WX    TMP DP  RH WIND       PRES   REMARKS
WILLISTON      FOG       24  22  91 S5        29.92S VSB 3/4 WCI  18
MINOT          CLOUDY    27  25  92 VRB6      29.92F FOG
MINOT AFB      CLOUDY    27  27 100 N2        29.91F
$$

NDZ018>021-031>035-040>046-192000-
SOUTHWEST NORTH DAKOTA

CITY           SKY/WX    TMP DP  RH WIND       PRES   REMARKS
BISMARCK       MOSUNNY   30  25  81 CALM      29.93F
DICKINSON      MOSUNNY   42  29  59 SW8       29.88F
GARRISON         N/A     26  25  96 NW3       29.91F
HETTINGER ARPT MOSUNNY   38  26  62 W9        29.92F
$$

NDZ004>008-012>016-024-026-027-054-192000-
NORTHEAST NORTH DAKOTA

CITY           SKY/WX    TMP DP  RH WIND       PRES   REMARKS
GRAND FORKS    CLOUDY    27  26  96 S9        30.03F FOG     WCI  18
GRND FRKS AFB  CLOUDY    27  27 100 S10       30.01F FOG     WCI  17
DEVILS LAKE    CLOUDY    27  19  74 S6        29.93F WCI  20
$$

NDZ022-023-025-028>030-036>039-047>053-192000-
SOUTHEAST NORTH DAKOTA

CITY           SKY/WX    TMP DP  RH WIND       PRES   REMARKS
FARGO          CLOUDY    30  26  85 S13       30.04F FOG     WCI  20
JAMESTOWN      CLOUDY    29  26  89 S9        29.95F
$$



USA.gov is the U.S. government's official web portal to all federal, state and local government web resources and services.